When you browse on this site, cookies collect data to enhance your experience and personalize the content and advertising you see.
Visit our Privacy Policy to learn more. By continuing to use the site, you agree to this use of cookies and data.
  • In Latvia
  • List of Countries
  • For 7 days
  • Water Temperature
  • Weather Map
  • Weather Widgets
  • user-avatar
    Login

    Hourly Weather Pocholaje

    Today, 28 May, Thursday

    Time Temperature Precipitation Wind Pressure Humidity
    00:00 +10°C° 0 mm 2 mps 751 mmHg 92%
    01:00 +9°C° 0 mm 2 mps 751 mmHg 93%
    02:00 +9°C° 0 mm 2 mps 751 mmHg 94%
    03:00 +8°C° 0 mm 2 mps 751 mmHg 94%
    04:00 +8°C° 0 mm 2 mps 750 mmHg 95%
    05:00 +8°C° 0 mm 2 mps 750 mmHg 95%
    06:00 +9°C° 0 mm 2 mps 750 mmHg 92%
    07:00 +12°C° 0 mm 2 mps 750 mmHg 89%
    08:00 +13°C° 0 mm 3 mps 750 mmHg 86%
    09:00 +14°C° 0.8 mm 3 mps 750 mmHg 81%
    10:00 +16°C° 0.8 mm 3 mps 749 mmHg 76%
    11:00 +17°C° 0.8 mm 4 mps 749 mmHg 71%
    12:00 +18°C° 0.8 mm 4 mps 749 mmHg 71%
    13:00 +18°C° 0.8 mm 4 mps 748 mmHg 71%
    14:00 +17°C° 0.8 mm 5 mps 747 mmHg 71%
    15:00 +17°C° 0.8 mm 5 mps 747 mmHg 74%
    16:00 +18°C° 0.8 mm 4 mps 747 mmHg 76%
    17:00 +17°C° 0.8 mm 4 mps 747 mmHg 78%
    18:00 +15°C° 0.8 mm 4 mps 747 mmHg 81%
    19:00 +14°C° 0.8 mm 4 mps 747 mmHg 83%
    20:00 +13°C° 0.8 mm 4 mps 747 mmHg 86%
    21:00 +13°C° 0.2 mm 4 mps 747 mmHg 88%
    22:00 +12°C° 0.2 mm 4 mps 747 mmHg 90%
    23:00 +11°C° 0.2 mm 3 mps 747 mmHg 91%

    Tomorrow, 29 May, Friday

    Time Temperature Precipitation Wind Pressure Humidity
    00:00 +11°C° 0.1 mm 3 mps 747 mmHg 92%
    01:00 +11°C° 0.1 mm 3 mps 747 mmHg 94%
    02:00 +10°C° 0.1 mm 3 mps 747 mmHg 95%
    03:00 +10°C° 0 mm 4 mps 747 mmHg 95%
    04:00 +8°C° 0 mm 4 mps 747 mmHg 96%
    05:00 +8°C° 0 mm 4 mps 747 mmHg 96%
    06:00 +10°C° 0 mm 4 mps 747 mmHg 94%
    07:00 +10°C° 0 mm 5 mps 747 mmHg 93%
    08:00 +12°C° 0 mm 5 mps 747 mmHg 91%
    09:00 +12°C° 0 mm 5 mps 747 mmHg 87%
    10:00 +13°C° 0 mm 5 mps 747 mmHg 84%
    11:00 +14°C° 0 mm 5 mps 747 mmHg 81%
    12:00 +14°C° 0.6 mm 6 mps 747 mmHg 78%
    13:00 +15°C° 0.6 mm 6 mps 747 mmHg 75%
    14:00 +16°C° 0.6 mm 7 mps 747 mmHg 72%
    15:00 +16°C° 0.2 mm 6 mps 747 mmHg 71%
    16:00 +16°C° 0.2 mm 6 mps 746 mmHg 70%
    17:00 +16°C° 0.2 mm 6 mps 746 mmHg 68%
    18:00 +14°C° 0.1 mm 5 mps 746 mmHg 73%
    19:00 +13°C° 0.1 mm 4 mps 746 mmHg 78%
    20:00 +12°C° 0.1 mm 3 mps 746 mmHg 82%
    21:00 +11°C° 0 mm 3 mps 746 mmHg 86%
    22:00 +10°C° 0 mm 3 mps 746 mmHg 89%
    23:00 +9°C° 0 mm 2 mps 746 mmHg 92%

    Day after tomorrow, 30 May, Saturday

    Time Temperature Precipitation Wind Pressure Humidity
    00:00 +9°C° 0 mm 3 mps 746 mmHg 92%
    01:00 +9°C° 0 mm 3 mps 745 mmHg 92%
    02:00 +8°C° 0 mm 4 mps 745 mmHg 91%
    03:00 +8°C° 0.1 mm 4 mps 745 mmHg 92%
    04:00 +8°C° 0.1 mm 5 mps 745 mmHg 92%
    05:00 +8°C° 0.1 mm 5 mps 745 mmHg 92%
    06:00 +8°C° 0.1 mm 5 mps 744 mmHg 92%
    07:00 +8°C° 0.1 mm 6 mps 744 mmHg 91%
    08:00 +8°C° 0.1 mm 6 mps 744 mmHg 90%
    09:00 +8°C° 0.1 mm 6 mps 744 mmHg 90%
    10:00 +8°C° 0.1 mm 6 mps 744 mmHg 91%
    11:00 +8°C° 0.1 mm 6 mps 744 mmHg 91%
    12:00 +8°C° 0.1 mm 6 mps 744 mmHg 90%
    13:00 +8°C° 0.1 mm 6 mps 744 mmHg 90%
    14:00 +8°C° 0.1 mm 6 mps 744 mmHg 89%
    15:00 +9°C° 0 mm 6 mps 744 mmHg 89%
    16:00 +9°C° 0 mm 6 mps 743 mmHg 89%
    17:00 +9°C° 0 mm 6 mps 743 mmHg 89%
    18:00 +9°C° 0.1 mm 6 mps 743 mmHg 91%
    19:00 +8°C° 0.1 mm 6 mps 743 mmHg 92%
    20:00 +8°C° 0.1 mm 7 mps 742 mmHg 93%
    21:00 +8°C° 0.1 mm 7 mps 742 mmHg 94%
    22:00 +8°C° 0.1 mm 7 mps 742 mmHg 94%
    23:00 +9°C° 0.1 mm 7 mps 741 mmHg 95%

    31 May, Sunday

    Time Temperature Precipitation Wind Pressure Humidity
    00:00 +9°C° 1.3 mm 7 mps 741 mmHg 96%
    01:00 +9°C° 1.3 mm 7 mps 740 mmHg 96%
    02:00 +9°C° 1.3 mm 8 mps 739 mmHg 97%
    03:00 +10°C° 2.6 mm 7 mps 739 mmHg 97%
    04:00 +10°C° 2.6 mm 7 mps 739 mmHg 97%
    05:00 +11°C° 2.6 mm 6 mps 739 mmHg 97%
    06:00 +11°C° 1.2 mm 6 mps 739 mmHg 97%
    07:00 +13°C° 1.2 mm 5 mps 739 mmHg 97%
    08:00 +13°C° 1.2 mm 4 mps 739 mmHg 96%
    09:00 +14°C° 0.3 mm 4 mps 740 mmHg 93%
    10:00 +15°C° 0.3 mm 4 mps 740 mmHg 89%
    11:00 +17°C° 0.3 mm 4 mps 741 mmHg 85%
    12:00 +18°C° 0.2 mm 4 mps 741 mmHg 81%
    13:00 +19°C° 0.2 mm 4 mps 741 mmHg 78%
    14:00 +19°C° 0.2 mm 3 mps 741 mmHg 74%
    15:00 +18°C° 0.9 mm 3 mps 741 mmHg 80%
    16:00 +17°C° 0.9 mm 4 mps 741 mmHg 86%
    17:00 +15°C° 0.9 mm 4 mps 741 mmHg 92%
    18:00 +15°C° 0.9 mm 4 mps 741 mmHg 93%
    19:00 +15°C° 0.9 mm 4 mps 741 mmHg 93%
    20:00 +15°C° 0.9 mm 5 mps 741 mmHg 93%
    21:00 +14°C° 0.3 mm 5 mps 741 mmHg 94%
    22:00 +14°C° 0.3 mm 4 mps 741 mmHg 95%
    23:00 +14°C° 0.3 mm 4 mps 742 mmHg 95%

    1 June, Monday

    Time Temperature Precipitation Wind Pressure Humidity
    00:00 +14°C° 0.2 mm 5 mps 742 mmHg 95%
    01:00 +14°C° 0.2 mm 5 mps 742 mmHg 95%
    02:00 +13°C° 0.2 mm 5 mps 742 mmHg 95%
    03:00 +13°C° 0.2 mm 5 mps 742 mmHg 95%
    04:00 +13°C° 0.2 mm 5 mps 742 mmHg 95%
    05:00 +13°C° 0.2 mm 5 mps 742 mmHg 95%
    06:00 +13°C° 0.1 mm 5 mps 742 mmHg 94%
    07:00 +13°C° 0.1 mm 5 mps 742 mmHg 93%
    08:00 +13°C° 0.1 mm 5 mps 742 mmHg 92%
    09:00 +14°C° 0.2 mm 6 mps 743 mmHg 90%
    10:00 +14°C° 0.2 mm 6 mps 743 mmHg 87%
    11:00 +15°C° 0.2 mm 7 mps 743 mmHg 85%
    12:00 +15°C° 0.3 mm 6 mps 743 mmHg 85%
    13:00 +15°C° 0.3 mm 6 mps 743 mmHg 86%
    14:00 +15°C° 0.3 mm 6 mps 743 mmHg 86%
    15:00 +15°C° 0.4 mm 6 mps 743 mmHg 87%
    16:00 +15°C° 0.4 mm 6 mps 743 mmHg 87%
    17:00 +15°C° 0.4 mm 6 mps 742 mmHg 88%
    18:00 +14°C° 0.4 mm 6 mps 742 mmHg 89%
    19:00 +14°C° 0.4 mm 5 mps 742 mmHg 91%
    20:00 +14°C° 0.4 mm 5 mps 742 mmHg 92%
    21:00 +13°C° 0.3 mm 5 mps 742 mmHg 93%
    22:00 +13°C° 0.3 mm 5 mps 743 mmHg 94%
    23:00 +13°C° 0.3 mm 5 mps 743 mmHg 95%

    2 June, Tuesday

    Time Temperature Precipitation Wind Pressure Humidity
    00:00 +13°C° 0.1 mm 5 mps 743 mmHg 95%
    01:00 +13°C° 0.1 mm 5 mps 743 mmHg 95%
    02:00 +13°C° 0.1 mm 5 mps 743 mmHg 95%
    03:00 +13°C° 0 mm 4 mps 743 mmHg 95%
    04:00 +13°C° 0 mm 4 mps 743 mmHg 95%
    05:00 +13°C° 0 mm 4 mps 743 mmHg 95%
    06:00 +13°C° 0 mm 4 mps 743 mmHg 95%
    07:00 +13°C° 0 mm 4 mps 744 mmHg 94%
    08:00 +14°C° 0 mm 4 mps 744 mmHg 93%
    09:00 +14°C° 0.3 mm 4 mps 744 mmHg 92%
    10:00 +15°C° 0.3 mm 4 mps 744 mmHg 91%
    11:00 +15°C° 0.3 mm 4 mps 745 mmHg 89%
    12:00 +15°C° 0.6 mm 4 mps 744 mmHg 88%
    13:00 +16°C° 0.6 mm 5 mps 744 mmHg 87%
    14:00 +16°C° 0.6 mm 5 mps 744 mmHg 86%
    15:00 +16°C° 0.2 mm 5 mps 744 mmHg 85%
    16:00 +17°C° 0.2 mm 5 mps 743 mmHg 84%
    17:00 +17°C° 0.2 mm 6 mps 743 mmHg 82%
    18:00 +16°C° 0 mm 5 mps 743 mmHg 84%
    19:00 +16°C° 0 mm 5 mps 743 mmHg 85%
    20:00 +15°C° 0 mm 4 mps 743 mmHg 87%
    21:00 +15°C° 0 mm 4 mps 743 mmHg 88%
    22:00 +14°C° 0 mm 4 mps 744 mmHg 89%
    23:00 +14°C° 0 mm 4 mps 744 mmHg 90%
    Show more